Home   Weather   Voronezh   Past weeks

Flag for Russia Past Weather in Voronezh, Russia — Yesterday and Last 2 Weeks

Now
28 °F

Clear.


Feels Like: 25 °F
Forecast: 17 / 22 °F
Wind: 3 mph from North

Location: Voronez

Current Time: Jan 17, 2017 at 12:11:06 pm

Latest Report: Jan 17, 2017 at 11:30 am


Visibility: 5 mi

Pressure: 30.39 "Hg

Humidity: 93%

Dew Point: 27 °F

Location of VoronezhLocation

Past Weather in Voronezh — Graph

°F

Voronezh Temperature Yesterday

Maximum temperature yesterday: 32 °F (at 12:30 pm)
Minimum temperature yesterday: 27 °F (at 12:00 am)
Average temperature yesterday: 29 °F

High & Low Weather Summary for the Past Weeks

 TemperatureHumidityPressure
High36 °F (Jan 2, 8:30 pm)100% (Jan 3, 6:30 am)30.36 "Hg (Jan 3, 6:30 am)
Low7 °F (Jan 7, 10:00 pm)69% (Jan 3, 8:30 pm)29.50 "Hg (Jan 3, 4:00 am)
Average23 °F91%29.96 "Hg
* Reported Jan 2 10:00 am — Jan 17 10:30 am, Voronezh, Weather by CustomWeather, © 2017

Note: Actual official high and low records may vary slightly from our data, if they occured in-between our weather recording intervals... More about our weather records

Advertising

Voronezh Weather History for the Previous 24 Hours

Scroll right to see more
 ConditionsComfort  
Time TempWeatherWind HumidityBarometerVisibility
10:30 am
Tue, Jan 17
28 °FLight snow. Low clouds.6 mph93%30.36 "Hg5 mi
10:00 am28 °FLight snow. Low clouds.6 mph93%30.36 "Hg4 mi
9:30 am28 °FLight snow. Low clouds.6 mph93%30.36 "Hg4 mi
9:00 am28 °FLight snow. Ice fog.8 mph93%30.33 "Hg3 mi
8:30 am28 °FLight snow. Ice fog.8 mph93%30.33 "Hg3 mi
8:00 am28 °FLight snow. Ice fog.6 mph93%30.33 "Hg2 mi
7:30 am28 °FLight snow. Ice fog.3 mph93%30.33 "Hg2 mi
7:00 am28 °FLight snow. Ice fog.3 mph93%30.30 "Hg2 mi
6:30 am28 °FLight snow. Ice fog.3 mph93%30.30 "Hg3 mi
6:00 am27 °FLight snow. Low clouds.3 mph100%30.30 "Hg3 mi
5:30 am28 °FLight snow. Overcast.3 mph93%30.30 "Hg3 mi
5:00 am28 °FLight snow. Overcast.6 mph93%30.30 "Hg3 mi
4:30 am27 °FLight snow. Ice fog.6 mph100%30.30 "Hg3 mi
4:00 am27 °FLight snow. Ice fog.6 mph100%30.27 "Hg3 mi
3:30 am28 °FLight snow. Ice fog.6 mph93%30.27 "Hg3 mi
3:00 am28 °FLight snow. Ice fog.6 mph93%30.27 "Hg3 mi
2:30 am28 °FLight snow. Ice fog.6 mph93%30.27 "Hg2 mi
2:00 am28 °FLight snow. Ice fog.3 mph93%30.24 "Hg2 mi
1:30 am28 °FLight snow. Ice fog.3 mph93%30.24 "Hg2 mi
1:00 am28 °FLight snow. Ice fog.3 mph93%30.24 "Hg2 mi
12:30 am28 °FLight snow. Low clouds.3 mph93%30.24 "Hg2 mi
12:00 am28 °FLight snow. Low clouds.3 mph100%30.24 "Hg3 mi
11:30 pm
Mon, Jan 16
28 °FLight snow. Low clouds.3 mph100%30.24 "Hg3 mi
11:00 pm28 °FSnow flurries. Low clouds.3 mph93%30.24 "Hg4 mi
10:30 pm28 °FSnow flurries. Overcast.3 mph93%30.21 "Hg4 mi
10:00 pm28 °FSnow flurries. Low clouds.6 mph93%30.21 "Hg4 mi
9:30 pm28 °FSnow flurries. Low clouds.6 mph93%30.21 "Hg4 mi
9:00 pm28 °FSnow flurries. Overcast.6 mph93%30.21 "Hg4 mi
8:30 pm28 °FSnow flurries. Overcast.1 mph100%30.21 "Hg4 mi
8:00 pm28 °FSnow flurries. Overcast.1 mph100%30.21 "Hg4 mi
7:30 pm28 °FSnow flurries. Overcast.3 mph100%30.21 "Hg4 mi
7:00 pm28 °FSnow flurries. Overcast.6 mph100%30.21 "Hg4 mi
6:30 pm28 °FSnow flurries. Low clouds.3 mph100%30.21 "Hg4 mi
6:00 pm28 °FSnow flurries. Overcast.3 mph100%30.21 "Hg4 mi
5:30 pm30 °FSnow flurries. Overcast.3 mph93%30.21 "Hg5 mi
5:00 pm30 °FSnow flurries. Overcast.1 mph93%30.18 "Hg6 mi
4:30 pm30 °FSnow flurries. Overcast.3 mph93%30.18 "Hg4 mi
4:00 pm30 °FOvercast.1 mph93%30.18 "HgN/A
3:30 pm30 °FOvercast.3 mph93%30.18 "Hg6 mi
3:00 pm30 °FSnow flurries. Low clouds.3 mph93%30.18 "HgN/A
2:30 pm30 °FSnow flurries. Low clouds.3 mph100%30.18 "HgN/A
2:00 pm30 °FSnow flurries. Low clouds.1 mph100%30.18 "Hg6 mi
1:30 pm30 °FLow clouds.1 mph93%30.18 "Hg6 mi
1:00 pm30 °FLow clouds.1 mph93%30.15 "Hg4 mi
12:30 pm32 °FLow clouds.No wind93%30.15 "Hg5 mi
12:00 pm30 °FLow clouds.No wind100%30.15 "Hg4 mi
Weather by CustomWeather, © 2017

See weather overviewHow to use our weather pages